Regional Weather Roundup
Issued by NWS Charleston, SC

Current Version | Previous Version | Graphics & Text | Print | Product List | Glossary On
Versions: 1 2 3 4 5 6 7 8 9 10 11 12 13 14 15 16 17 18 19 20 21 22 23 24 25 26 27 28 29 30 31 32 33 34 35 36 37 38 39 40 41 42 43 44 45 46 47 48 49 50
000
ASUS42 KCHS 280527
RWRCHS

REGIONAL WEATHER ROUNDUP
NATIONAL WEATHER SERVICE CHARLESTON SC
100 AM EDT FRI APR 28 2017

NOTE: "FAIR" INDICATES FEW OR NO CLOUDS BELOW 12,000 FEET WITH NO
SIGNIFICANT WEATHER AND/OR OBSTRUCTIONS TO VISIBILITY.

NOT ALL STATIONS ARE QUALITY CONTROLLED. USE DATA WITH CAUTION...
ESPECIALLY DEWPOINT OBSERVATIONS.

SCZ027-030-031-034>040-042>050-280600-
...SOUTHEAST SOUTH CAROLINA...

CITY           SKY/WX    TMP DP  RH WIND       PRES   REMARKS
N CHARLESTON   CLOUDY    76  71  85 S15       29.95S
WATERFRONT PRK   N/A     75  73  93 SW9       29.93F
JOHNS ISLAND   MOCLDY    75  73  94 S10G17    29.96S
PINOPOLIS        N/A     73  70  88 VRB3      29.86F
MONCKS CORNER  CLOUDY    73  70  88 SW9       29.95S
SUMMERVILLE    FAIR      73  70  88 S7        29.96R
BEAUFORT MCAS  PTCLDY    77  73  87 S10G23    29.94S
BEAUFORT ARPT  FAIR      73  72  94 S13G18    29.94S
HILTON HEAD IS CLOUDY    75  75 100 S10G20    29.95F
WALTERBORO     PTCLDY    73  70  88 S5        29.95R
ALLENDALE      FAIR      73  64  73 CALM      29.93S

...SOUTHERN MIDLANDS AND PEE DEE...

CITY           SKY/WX    TMP DP  RH WIND       PRES   REMARKS
GEORGETOWN     FAIR      73  72  94 S8        29.97R
KINGSTREE      MOCLDY    72  68  88 SE7       29.94F
ORANGEBURG     CLOUDY    72  63  73 S6        29.94R
BARNWELL       FAIR      75  66  73 CALM      29.94R
AIKEN          FAIR      68  64  88 SE6       29.97R
MANNING        FAIR      72  66  83 S15G23    29.95S
COLUMBIA       CLOUDY    74  62  66 S7        29.91R
SUMTER         CLOUDY    72  62  71 S7        29.91S
FLORENCE       CLOUDY    73  69  87 S7        29.94R
MYRTLE BEACH   CLOUDY    73  72  96 S13       29.97S
N MYRTLE BEACH MOCLDY    73  72  96 S12       29.95F

$$

GAZ063-065-086>088-099>101-113>116-118-119-134>141-150-280600-
...SOUTHEAST GEORGIA...

CITY           SKY/WX    TMP DP  RH WIND       PRES   REMARKS
SAVANNAH ARPT  CLOUDY    75  70  84 S9        29.93F
HUNTER AAF     CLOUDY    75  75 100 S5        29.91F
FORT STEWART   PTCLDY    72  67  84 S3        29.91F
STATESBORO     CLOUDY    73  64  75 CALM      29.95R
SYLVANIA       CLOUDY   N/A N/A N/A CALM      29.95R
CLAXTON        FAIR      73  70  92 CALM      29.93R

...CSRA...CENTRAL AND FAR SOUTHEAST GEORGIA...

CITY           SKY/WX    TMP DP  RH WIND       PRES   REMARKS
THOMSON        CLEAR     67  66  96 SW5       29.97R FOG
AUGUSTA-BUSH   CLOUDY    70  67  90 CALM      29.91S
AUGUSTA-DANIEL CLOUDY    73  65  75 SE6       29.93S
SWAINSBORO     FAIR      72  64  78 CALM      29.95S
VIDALIA        CLOUDY    75  68  78 SW6       29.94R
EASTMAN        FAIR      75  61  60 SW3       29.96R
HAZLEHURST     FAIR      73  71  94 SW3       29.93R
ALMA           CLEAR     72  67  84 S5        29.93S
WAYCROSS       CLEAR     74  70  86 CALM      29.95R
JESUP          FAIR      72  63  73 S3        29.95S
BAXLEY         FAIR      72  72 100 S3        29.94R
BRUNSWICK      FOG       72  72 100 S6        29.96F VSB 3/4
SAINT SIMONS   PTCLDY    75  72  90 S6        29.96S

$$

SCZ027-028-034-036>038-045-046-048>050-GAZ119-141-280600-
...LAKE AND SUPPLEMENTAL COASTAL OBSERVATIONS...

STATION/POSITION TIME  TEMP    WIND        PRES    WAVE   SWELL
                       AIR SEA DIR/SP/G            HT/PER HT/PER/DIR
                 (UTC) (F)     (DEG/KT/KT) (MB)    (FT/S) (FT/S/D)
WINYAH BAY       0445   74     190/  9     1014.0F
LAKE MURRAY      0520   72     160/  6/  8 1012.5S
ACE BASIN NERRS  0445   75     180/  2     1014.0S
FORT PULASKI     0500   75 74  200/ 11/ 16 1014.0
SAPELO ISLAND    0430   75     180/  8     1014.0F

$$

ANZ835-935-AMZ111-154-330-350-352-354-370-450-454-472-280600-
...C-MAN AND BUOY OBSERVATIONS...

STATION/POSITION TIME  TEMP    WIND        PRES    WAVE   SWELL
                       AIR SEA DIR/SP/G            HT/PER HT/PER/DIR
                 (UTC) (F)     (DEG/KT/KT) (MB)    (FT/S) (FT/S/D)
BUOY 41004       0510   75 74  180/ 14/ 17 1014.5
BUOY 41008       0450   74 73  180/ 12/ 14 1014.2F   3/ 5   2/120/ 9
FOLLY BEACH CMAN 0500   74     200/  8/  9 1015.0F
CAPERS NEARSHORE 0508   74 73  210/ 12/ 16 1014.3S
FRIPP NEARSHORE  0508   74 72  200/ 16/ 17 1013.7F


STATION/POSITION TIME  TEMP    WIND        PRES    WAVE   SWELL
                       AIR SEA DIR/SP/G            HT/PER HT/PER/DIR
                 (UTC) (F)     (DEG/KT/KT) (MB)    (FT/S) (FT/S/D)
5E ST. MARYS GA  0500      74                N/A     3/ 5
FRYING PAN BUOY  0510   75 73  180/ 10/ 14 1015.4
BUOY 41025       0450   77 77  220/ 17/ 21 1016.1R   6/ 6   3/130/ 8
CAPE LOOKOUT NC  0500   73     190/ 10/ 13 1015.7R
BUOY 41002       0450   74 75  160/ 16/ 17 1018.1F   4/ 6   2/ 90/ 8
BUOY 41010       0510   78 78  140/ 16/ 19 1016.1
ST AUGUSTINE FL  0500   76 76  190/  5/  5 1015.8R


$$



USA.gov is the U.S. government's official web portal to all federal, state and local government web resources and services.